McCook, NE

1:45 PM CDT on June 23, 2017 (GMT -0500)
McCook Municipal

Weather History for KMCK - May, 2013

Change the Weather History Date:

Thursday, May 2, 2013

  Actual Average Record
Temperature  
Mean Temperature 43 °F 55 °F  
Max Temperature 54 °F 70 °F 96 °F (1959)
Min Temperature 32 °F 41 °F 24 °F (1989)
Degree Days  
Heating Degree Days 23    
Moisture  
Dew Point 27 °F    
Average Humidity 65    
Maximum Humidity 93    
Minimum Humidity 27    
Precipitation  
Precipitation T in 0.10 in 1.32 in (1954)
Month to date precipitation 0.09 0.19  
Year to date precipitation 3.66 4.99  
Sea Level Pressure  
Sea Level Pressure 30.61 in    
Wind  
Wind Speed 13 mph (NNW)    
Max Wind Speed 18 mph    
Max Gust Speed 26 mph    
Visibility 9 miles    
Events Snow    
T = Trace of Precipitation, MM = Missing Value Source: NWS Daily Summary

Daily Weather History Graph

Daily Weather History Graph

Search for Another Location

Airport or City:

Trip Planner

Search our weather history database for the weather conditions in past years. The results will help you decide how hot, cold, wet, or windy it might be!

Date:

Astronomy

May. 02, 2013 Rise Set
Actual Time 6:40 AM CDT 8:38 PM CDT
Civil Twilight 6:10 AM CDT 9:08 PM CDT
Nautical Twilight 5:34 AM CDT 9:44 PM CDT
Astronomical Twilight 4:55 AM CDT 10:23 PM CDT
Moon 2:29 AM CDT (5/2) 1:29 PM CDT (5/2)
Length of Visible Light 14h 57m
Length of Day
13h 58m
Waning Gibbous, 47% of the Moon is Illuminated
May 2
Waning Gibbous
May 9
New
May 17
First Quarter
May 24
Full
May 31
Last Quarter

Hourly Weather History & Observations

Time (CDT) Temp. Windchill Dew Point Humidity Pressure Visibility Wind Dir Wind Speed Gust Speed Precip Events Conditions
12:11 AM 32.0 °F 21.6 °F 30.2 °F 93% 30.55 in 2.0 mi North 15.0 mph - 0.00 in Snow Light Snow
12:30 AM 32.0 °F 21.6 °F 30.2 °F 93% 30.54 in 1.5 mi North 15.0 mph - 0.00 in Snow Light Snow
12:53 AM 33.1 °F 23.0 °F 30.9 °F 92% 30.62 in 1.8 mi North 15.0 mph - 0.00 in Snow Light Snow
1:04 AM 33.8 °F 23.9 °F 30.2 °F 87% 30.56 in 2.0 mi North 15.0 mph - 0.00 in Snow Light Snow
1:29 AM 33.8 °F 24.8 °F 30.2 °F 87% 30.55 in 3.0 mi North 12.7 mph - 0.00 in Snow Light Snow
1:53 AM 34.0 °F 25.5 °F 28.9 °F 82% 30.63 in 10.0 mi North 11.5 mph - 0.00 in   Overcast
2:53 AM 34.0 °F 27.2 °F 28.9 °F 82% 30.65 in 10.0 mi NW 8.1 mph - N/A   Overcast
3:53 AM 36.0 °F 28.0 °F 27.0 °F 70% 30.66 in 10.0 mi North 11.5 mph - N/A   Overcast
4:53 AM 35.1 °F 27.4 °F 27.0 °F 72% 30.67 in 10.0 mi North 10.4 mph - N/A   Overcast
5:53 AM 34.0 °F 27.2 °F 27.0 °F 75% 30.69 in 10.0 mi NNW 8.1 mph - N/A   Overcast
6:53 AM 33.1 °F 24.9 °F 28.0 °F 82% 30.69 in 10.0 mi WNW 10.4 mph - N/A   Partly Cloudy
7:53 AM 33.1 °F 24.4 °F 28.0 °F 82% 30.71 in 10.0 mi NW 11.5 mph - N/A   Overcast
8:53 AM 34.0 °F 25.0 °F 28.0 °F 79% 30.73 in 10.0 mi NNW 12.7 mph - N/A   Scattered Clouds
9:53 AM 37.9 °F 30.0 °F 28.9 °F 70% 30.72 in 10.0 mi NNW 12.7 mph - N/A   Partly Cloudy
10:53 AM 42.1 °F 35.7 °F 30.9 °F 65% 30.72 in 10.0 mi North 11.5 mph - N/A   Mostly Cloudy
11:53 AM 46.0 °F 40.6 °F 27.0 °F 47% 30.70 in 10.0 mi North 11.5 mph 19.6 mph N/A   Clear
12:53 PM 48.0 °F - 27.0 °F 44% 30.68 in 10.0 mi North 18.4 mph - N/A   Mostly Cloudy
1:53 PM 51.8 °F - 23.0 °F 33% 30.60 in 10.0 mi North 18.4 mph 26.5 mph N/A   Scattered Clouds
2:53 PM 51.1 °F - 21.9 °F 32% 30.62 in 10.0 mi North 12.7 mph - N/A   Mostly Cloudy
3:53 PM 52.0 °F - 21.0 °F 30% 30.58 in 10.0 mi NNE 16.1 mph - N/A   Overcast
4:53 PM 52.0 °F - 19.0 °F 27% 30.56 in 10.0 mi NNW 16.1 mph 21.9 mph N/A   Mostly Cloudy
5:53 PM 50.0 °F - 19.0 °F 29% 30.54 in 10.0 mi NNW 10.4 mph - N/A   Overcast
6:53 PM 50.0 °F - 23.0 °F 35% 30.53 in 10.0 mi NNW 12.7 mph - N/A   Overcast
7:53 PM 45.0 °F 40.6 °F 28.0 °F 52% 30.53 in 10.0 mi West 8.1 mph - 0.00 in   Partly Cloudy
8:53 PM 39.9 °F 34.5 °F 28.9 °F 65% 30.53 in 10.0 mi NW 8.1 mph - N/A   Clear
9:53 PM 39.9 °F 37.8 °F 28.0 °F 63% 30.51 in 10.0 mi NE 3.5 mph - N/A   Clear
10:53 PM 36.0 °F - 28.9 °F 76% 30.51 in 10.0 mi Calm Calm - N/A   Overcast
11:53 PM 37.0 °F 33.3 °F 28.9 °F 73% 30.48 in 10.0 mi WSW 4.6 mph - N/A   Scattered Clouds